[[{"header":{"parameterUnit":"m.s-1","parameterCategory":1,"la1":30.2991,"la2":30.254,"lo1":-89.0895,"lo2":-89.0444,"dy":0.0017,"dx":0.0017,"nx":28,"ny":28,"refTime":"2023-10-07T03:00:00:Z","depth":0,"parameterNumber":2,"parameterNumberName":"U-component_of_WINDS"},"data":[0,0,0,0,0,0,0,0,0,0,0,0,0,0,0,0,0,0,0,0,0,0,0,0,0,0,0,0,0,0,0,0,0,0,0,0,0,0,0,0,0,0,0,0,0,0,0,0,0,0,0,0,0,0,0,0,0,0,-0.6587,-0.6587,0,-0.6571,-0.657,-0.657,-0.6536,-0.6535,-0.6534,-0.6534,-0.6518,-0.6518,-0.6518,0,0,0,0,0,0,0,0,0,0,0,0,0,-0.6588,-0.6588,-0.6587,-0.6587,-0.6587,-0.6571,-0.657,-0.657,-0.6536,-0.6535,-0.6534,-0.6533,-0.6518,-0.6518,-0.6518,0,0,0,0,0,0,0,0,0,0,0,0,0,-0.6581,-0.6588,-0.6587,-0.6568,-0.6566,-0.6571,-0.657,-0.657,-0.6536,-0.6535,-0.6534,-0.6533,-0.6517,-0.6518,-0.6518,-0.6541,0,0,-0.6519,-0.6519,0,0,0,0,0,0,0,0,-0.6582,-0.6581,-0.6571,-0.6569,-0.6567,-0.6554,-0.6565,-0.656,-0.6536,-0.6547,-0.6534,-0.6533,-0.6531,-0.653,-0.6529,-0.654,-0.654,-0.6519,-0.6519,-0.652,-0.652,0,0,0,0,0,0,0,-0.6582,-0.6582,-0.6581,-0.657,-0.6568,-0.656,-0.6557,-0.6564,-0.6545,-0.6546,-0.6544,-0.6542,-0.6529,-0.6529,-0.6528,-0.6539,-0.6519,-0.6519,-0.652,-0.652,-0.6568,-0.6569,0,0,0,0,0,0,-0.6586,-0.6583,-0.6581,-0.658,-0.6572,-0.656,-0.6558,-0.6559,-0.6545,-0.6542,-0.6543,-0.6541,-0.6529,-0.6528,-0.6528,-0.6553,-0.652,-0.652,-0.652,-0.6567,-0.6568,-0.6569,0,0,0,0,0,0,-0.6586,-0.6586,-0.6582,-0.6581,-0.6579,-0.6561,-0.6563,-0.656,-0.6559,-0.6543,-0.6539,-0.6546,-0.6528,-0.6527,-0.6538,-0.6552,-0.652,-0.652,-0.6565,-0.6567,-0.6568,-0.6605,0,0,0,0,0,0,-0.6586,-0.6586,-0.6595,-0.6581,-0.658,-0.6592,-0.6564,-0.656,-0.656,-0.6556,-0.6544,-0.6541,-0.6527,-0.6537,-0.6538,-0.6552,-0.6521,-0.6564,-0.6566,-0.6568,-0.6602,-0.6607,-0.6612,0,0,0,0,0,-0.6586,-0.6606,-0.6595,-0.6595,-0.659,-0.6593,-0.6592,-0.6575,-0.6561,-0.6569,-0.6559,-0.6542,-0.655,-0.6539,-0.6539,-0.6554,-0.6563,-0.6565,-0.6568,-0.66,-0.6606,-0.6612,0,0,0,0,0,0,-0.6622,-0.6604,-0.6592,-0.6608,-0.6602,-0.6587,-0.6597,-0.6583,-0.6581,-0.6578,-0.6557,-0.6555,-0.6568,-0.6562,-0.6549,-0.6575,-0.6554,-0.6557,-0.6578,-0.6584,-0.6589,-0.659,-0.6521,0,0,0,0,0,-0.6632,-0.6636,-0.662,-0.6635,-0.6633,-0.6616,-0.6617,-0.6604,-0.6597,-0.6595,-0.6585,-0.6579,-0.658,-0.6582,-0.6582,-0.6601,-0.6598,-0.6611,-0.6616,-0.662,-0.6622,-0.6631,-0.6637,-0.6577,-0.6577,-0.6577,0,0,-0.6652,-0.6643,-0.6647,-0.6642,-0.6636,-0.6641,-0.6614,-0.662,-0.6623,-0.6596,-0.6605,-0.6597,-0.659,-0.6604,-0.661,-0.6599,-0.6638,-0.6623,-0.6626,-0.6627,-0.6634,-0.664,-0.6645,-0.6579,-0.6578,-0.6578,0,0,-0.6692,-0.6685,-0.6697,-0.6691,-0.6683,-0.6671,-0.6674,-0.6661,-0.6655,-0.6663,-0.6643,-0.6646,-0.6649,-0.6644,-0.6642,-0.6678,-0.6663,-0.6679,-0.6705,-0.6713,-0.6718,-0.6722,-0.6735,-0.674,-0.6682,-0.6682,-0.6682,0,-0.6718,-0.6724,-0.6705,-0.6712,-0.6711,-0.6685,-0.6697,-0.6693,-0.6685,-0.6684,-0.6672,-0.6675,-0.6668,-0.6681,-0.6689,-0.6689,-0.6691,-0.6681,-0.6719,-0.6723,-0.6726,-0.6738,-0.6743,-0.6684,-0.6684,-0.6683,-0.6683,0,-0.6757,-0.6761,-0.6772,-0.6764,-0.6764,-0.6774,-0.6756,-0.6758,-0.6745,-0.6734,-0.6743,-0.6734,-0.6731,-0.6733,-0.6721,-0.6744,-0.6738,-0.6723,-0.6702,-0.6734,-0.6745,-0.675,-0.6687,-0.6686,-0.6685,-0.6685,0,0,-0.6819,-0.68,-0.6805,-0.6801,-0.6789,-0.6792,-0.68,-0.6797,-0.6799,-0.6794,-0.68,-0.6803,-0.6788,-0.6786,-0.6773,-0.6781,-0.681,-0.6764,-0.6764,-0.6773,-0.6834,-0.6846,-0.6851,-0.6799,-0.68,-0.68,-0.6835,0,-0.6856,-0.6869,-0.6851,-0.6868,-0.6871,-0.6847,-0.6854,-0.6847,-0.6837,-0.6839,-0.6828,-0.683,-0.6811,-0.6809,-0.6816,-0.6805,-0.6822,-0.6802,-0.6805,-0.6805,-0.6807,-0.6857,-0.6869,-0.6902,-0.6839,-0.684,-0.684,0,-0.6901,-0.6897,-0.6914,-0.69,-0.6901,-0.6908,-0.6904,-0.6905,-0.6897,-0.6889,-0.6887,-0.687,-0.6877,-0.6856,-0.6865,-0.6852,-0.6852,-0.6847,-0.6848,-0.6847,-0.6825,-0.6858,-0.6912,-0.6917,-0.6847,-0.6846,-0.6846,0,-0.6944,-0.6944,-0.6954,-0.6951,-0.6936,-0.6941,-0.6934,-0.6925,-0.6924,-0.6921,-0.692,-0.6917,-0.6916,-0.6914,-0.6898,-0.6884,-0.6908,-0.6886,-0.6902,-0.6903,-0.6909,-0.6908,-0.6964,-0.6908,-0.6908,-0.6908,-0.6908,0,-0.6987,-0.6998,-0.6973,-0.6979,-0.6991,-0.6971,-0.6983,-0.6974,-0.6966,-0.6969,-0.6948,-0.6952,-0.693,-0.6932,-0.6919,-0.6928,-0.6927,-0.6921,-0.6918,-0.6923,-0.6924,-0.6923,-0.692,-0.691,-0.6909,-0.6909,-0.6909,0,-0.7038,-0.7022,-0.7031,-0.7015,-0.7011,-0.702,-0.7007,-0.7012,-0.7,-0.7005,-0.7005,-0.6987,-0.6988,-0.6971,-0.6968,-0.696,-0.6974,-0.6967,-0.6977,-0.6975,-0.6991,-0.699,-0.7048,-0.7054,-0.6995,-0.6996,-0.6996,0,-0.7066,-0.7074,-0.7059,-0.706,-0.7055,-0.7056,-0.7055,-0.7035,-0.7035,-0.7026,-0.7032,-0.7031,-0.7029,-0.7031,-0.7018,-0.7015,-0.7008,-0.7028,-0.7007,-0.7012,-0.7008,-0.7007,-0.7008,-0.7033,-0.7033,-0.7034,-0.7034,0,-0.7119,-0.711,-0.7109,-0.7106,-0.7105,-0.7101,-0.7096,-0.7098,-0.7076,-0.7077,-0.7077,-0.7075,-0.7072,-0.7071,-0.7067,-0.706,-0.7044,-0.7041,-0.7044,-0.705,-0.7056,-0.7053,-0.6989,-0.704,-0.7039,-0.7039,-0.7039,-0.7038,-0.7159,-0.7165,-0.7155,-0.7154,-0.7148,-0.7144,-0.7147,-0.7136,-0.7136,-0.7132,-0.712,-0.7122,-0.7113,-0.7104,-0.7099,-0.71,-0.709,-0.7095,-0.7097,-0.7098,-0.7101,-0.7056,-0.7099,-0.7099,-0.7099,-0.7099,-0.7099,0,-0.721,-0.7202,-0.7202,-0.7195,-0.7195,-0.7179,-0.7172,-0.7173,-0.7175,-0.7168,-0.7166,-0.7166,-0.7165,-0.7151,-0.7148,-0.7152,-0.7144,-0.7152,-0.7151,-0.715,-0.7111,-0.7108,-0.7158,-0.7158,-0.7158,-0.7158,-0.7158,-0.7158,-0.7236,-0.7245,-0.7235,-0.724,-0.7232,-0.7234,-0.7231,-0.7227,-0.7221,-0.7222,-0.722,-0.7211,-0.7201,-0.7197,-0.7195,-0.7191,-0.7191,-0.7201,-0.7195,-0.7158,-0.7153,-0.7147,-0.7144,-0.7201,-0.7201,-0.7234,-0.7234,-0.7234]},{"header":{"parameterUnit":"m.s-1","parameterCategory":1,"la1":30.2991,"la2":30.254,"lo1":-89.0895,"lo2":-89.0444,"dy":0.0017,"dx":0.0017,"nx":28,"ny":28,"refTime":"2023-10-07T03:00:00:Z","depth":0,"parameterNumber":3,"parameterNumberName":"V-component_of_WINDS"},"data":[0,0,0,0,0,0,0,0,0,0,0,0,0,0,0,0,0,0,0,0,0,0,0,0,0,0,0,0,0,0,0,0,0,0,0,0,0,0,0,0,0,0,0,0,0,0,0,0,0,0,0,0,0,0,0,0,0,0,-6.3777,-6.3778,0,-6.3831,-6.3831,-6.3832,-6.3795,-6.3794,-6.3792,-6.3791,-6.384,-6.3843,-6.3846,0,0,0,0,0,0,0,0,0,0,0,0,0,-6.364,-6.3643,-6.3777,-6.3778,-6.3778,-6.3831,-6.3831,-6.3832,-6.3796,-6.3794,-6.3792,-6.379,-6.3839,-6.3843,-6.3846,0,0,0,0,0,0,0,0,0,0,0,0,0,-6.3697,-6.3644,-6.3777,-6.3767,-6.3766,-6.383,-6.3831,-6.3832,-6.3796,-6.3794,-6.3791,-6.3789,-6.3838,-6.3842,-6.3847,-6.3922,0,0,-6.386,-6.3862,0,0,0,0,0,0,0,0,-6.3694,-6.3702,-6.3768,-6.3768,-6.3767,-6.3804,-6.3801,-6.3862,-6.3797,-6.3785,-6.379,-6.3788,-6.383,-6.3835,-6.385,-6.3925,-6.3927,-6.386,-6.3863,-6.3865,-6.3866,0,0,0,0,0,0,0,-6.369,-6.3699,-6.3798,-6.3768,-6.3768,-6.3758,-6.3764,-6.3813,-6.382,-6.3785,-6.3783,-6.379,-6.3829,-6.3846,-6.3851,-6.3927,-6.386,-6.3864,-6.3866,-6.3868,-6.4069,-6.4072,0,0,0,0,0,0,-6.3687,-6.3696,-6.3796,-6.38,-6.3724,-6.3763,-6.3769,-6.3794,-6.382,-6.3821,-6.3792,-6.3788,-6.384,-6.3846,-6.3852,-6.3945,-6.3865,-6.3869,-6.3871,-6.4066,-6.407,-6.4073,0,0,0,0,0,0,-6.3685,-6.3697,-6.3794,-6.3748,-6.3759,-6.3768,-6.3797,-6.3797,-6.3814,-6.3825,-6.3825,-6.3808,-6.3838,-6.3846,-6.3906,-6.3946,-6.387,-6.3874,-6.4063,-6.4067,-6.4071,-6.4128,0,0,0,0,0,0,-6.3681,-6.3696,-6.3725,-6.3749,-6.3762,-6.3848,-6.3799,-6.38,-6.3822,-6.3817,-6.384,-6.3841,-6.3837,-6.39,-6.391,-6.395,-6.3878,-6.406,-6.4065,-6.407,-6.4123,-6.4134,-6.4143,0,0,0,0,0,-6.3676,-6.3737,-6.3727,-6.3739,-6.3799,-6.385,-6.3858,-6.3853,-6.3825,-6.3854,-6.3862,-6.384,-6.394,-6.3906,-6.3918,-6.3959,-6.4057,-6.4063,-6.4069,-6.4118,-6.4131,-6.4143,0,0,0,0,0,0,-6.3716,-6.374,-6.3729,-6.38,-6.3824,-6.3844,-6.3881,-6.3867,-6.3898,-6.3892,-6.3883,-6.3889,-6.3952,-6.3961,-6.3924,-6.4035,-6.3994,-6.4003,-6.4027,-6.404,-6.4049,-6.4046,-6.3881,0,0,0,0,0,-6.3734,-6.3775,-6.3793,-6.3854,-6.3867,-6.3872,-6.3894,-6.3889,-6.3912,-6.3922,-6.3933,-6.3956,-6.3992,-6.4016,-6.405,-6.4124,-6.4129,-6.4158,-6.4168,-6.4177,-6.4184,-6.4226,-6.424,-6.4093,-6.4093,-6.4093,0,0,-6.3769,-6.3788,-6.3814,-6.3862,-6.388,-6.3923,-6.3881,-6.3926,-6.3957,-6.3928,-6.3986,-6.3996,-6.402,-6.4088,-6.4118,-6.4098,-6.4226,-6.4184,-6.4191,-6.4194,-6.4234,-6.4248,-6.426,-6.4097,-6.4097,-6.4096,0,0,-6.3857,-6.3874,-6.3928,-6.3948,-6.3976,-6.398,-6.3993,-6.4017,-6.4023,-6.4081,-6.4061,-6.4097,-6.4159,-6.4178,-6.4196,-6.4294,-6.4276,-6.4305,-6.4358,-6.4399,-6.441,-6.442,-6.4457,-6.447,-6.4312,-6.4312,-6.4313,0,-6.3897,-6.3961,-6.3957,-6.4006,-6.4028,-6.4006,-6.4061,-6.4079,-6.4116,-6.4132,-6.4109,-6.4189,-6.4203,-6.4277,-6.4301,-6.4315,-6.433,-6.4302,-6.4409,-6.4419,-6.4429,-6.4463,-6.4477,-6.4316,-6.4316,-6.4315,-6.4315,0,-6.401,-6.4055,-6.4095,-6.4135,-6.4162,-6.4213,-6.4216,-6.4243,-6.4236,-6.4242,-6.4303,-6.432,-6.4358,-6.4375,-6.4367,-6.4448,-6.4434,-6.441,-6.4369,-6.4446,-6.4479,-6.4492,-6.4321,-6.432,-6.4319,-6.4318,0,0,-6.4123,-6.4163,-6.4177,-6.4196,-6.4227,-6.4261,-6.4312,-6.4351,-6.4376,-6.4402,-6.4445,-6.4499,-6.4479,-6.4499,-6.4493,-6.4529,-6.4607,-6.45,-6.4501,-6.4521,-6.4699,-6.4718,-6.4733,-6.4595,-6.4598,-6.46,-6.4697,0,-6.4213,-6.4304,-6.4303,-6.4386,-6.4428,-6.4409,-6.4453,-6.4476,-6.4484,-6.452,-6.4526,-6.4567,-6.4535,-6.4547,-6.4582,-6.459,-6.4643,-6.4583,-6.4634,-6.4636,-6.463,-6.4749,-6.4769,-6.486,-6.471,-6.4712,-6.4713,0,-6.4331,-6.4365,-6.4453,-6.4481,-6.4498,-6.4538,-6.4576,-6.461,-6.4637,-6.464,-6.4664,-6.4653,-6.4704,-6.4661,-6.4732,-6.4691,-6.4712,-6.4719,-6.4723,-6.4728,-6.468,-6.4759,-6.4889,-6.4903,-6.4733,-6.4731,-6.473,0,-6.4407,-6.4474,-6.4537,-6.4553,-6.4586,-6.4615,-6.463,-6.4654,-6.4679,-6.4711,-6.4727,-6.4763,-6.4784,-6.4812,-6.4812,-6.478,-6.4883,-6.484,-6.4887,-6.4887,-6.491,-6.4909,-6.5047,-6.4922,-6.4922,-6.4921,-6.4921,0,-6.4508,-6.4563,-6.4572,-6.461,-6.4672,-6.4669,-6.473,-6.4742,-6.4764,-6.4804,-6.4788,-6.4825,-6.4822,-6.486,-6.4859,-6.4919,-6.4927,-6.4931,-6.493,-6.4933,-6.4933,-6.4947,-6.4941,-6.4925,-6.4924,-6.4923,-6.4923,0,-6.4603,-6.4611,-6.4678,-6.4705,-6.4713,-6.4757,-6.478,-6.4816,-6.4823,-6.4874,-6.4885,-6.4896,-6.4939,-6.4942,-6.4991,-6.4991,-6.5064,-6.5055,-6.5056,-6.5055,-6.5103,-6.5099,-6.5255,-6.5276,-6.5137,-6.5138,-6.5139,0,-6.4668,-6.4711,-6.4744,-6.4771,-6.4788,-6.4831,-6.4857,-6.4857,-6.4884,-6.4919,-6.4951,-6.4994,-6.5029,-6.51,-6.5111,-6.5149,-6.5142,-6.5194,-6.5148,-6.515,-6.5145,-6.5143,-6.5148,-6.5204,-6.5205,-6.5206,-6.5207,0,-6.4783,-6.4786,-6.4825,-6.4867,-6.4899,-6.4931,-6.4961,-6.4983,-6.4987,-6.5018,-6.5065,-6.5092,-6.5144,-6.5187,-6.5225,-6.5239,-6.5224,-6.5222,-6.5236,-6.5239,-6.5239,-6.5241,-6.5082,-6.5219,-6.5217,-6.5217,-6.5216,-6.5216,-6.4866,-6.4904,-6.4935,-6.4979,-6.5002,-6.5031,-6.5068,-6.5081,-6.512,-6.5164,-6.5161,-6.5212,-6.5239,-6.5289,-6.5306,-6.5346,-6.5328,-6.5346,-6.5351,-6.5357,-6.5363,-6.5232,-6.5352,-6.5352,-6.5352,-6.5351,-6.5351,0,-6.4982,-6.5001,-6.5043,-6.5087,-6.5123,-6.5108,-6.514,-6.5171,-6.5217,-6.5244,-6.5279,-6.5333,-6.5376,-6.5391,-6.5432,-6.5461,-6.5455,-6.5472,-6.547,-6.5474,-6.5375,-6.5361,-6.5476,-6.5476,-6.5476,-6.5476,-6.5476,-6.5476,-6.5047,-6.5111,-6.5118,-6.5194,-6.5211,-6.5264,-6.5284,-6.5311,-6.5333,-6.5395,-6.5431,-6.5441,-6.5464,-6.5507,-6.5545,-6.5548,-6.5565,-6.5584,-6.5585,-6.5493,-6.548,-6.5468,-6.5455,-6.5588,-6.5588,-6.568,-6.5681,-6.5682]}]]